Clarks Grove, Minnesota
Current Conditions -  °F | °C
As of 5:13 AM on Sunday 23 Nov 2014 (Local Time) from KAEL Reporting Station
Haze Haze  
Wind Chill: 50°   Ceiling: 400
Heat Index: 50°   Visibility: 2.5mi
Dew Point: 50°   Wind: 13mph
Humidity: 100%   Direction: 190°S
Pressure: 29.47"   Gusts: 17mph
Location:  43.76°N, 93.33°W
Report Text: KAEL 231113Z AUTO 19011G15KT 2 1/2SM BR OVC004 10/10 A2947 RMK AO2
Loading
Personal Weather Stations






























Interactive Weather Map New forecast layout! Learn more

10-Day Weather Forecast

Advertisements
Track Severe Weather on mobile